DW8024 Weather Reports


Display with metric or nautical units.
time (UTC)temp
F
wind
direction
speed
MPH
gust
MPH
rain 1hr
in
rain 24hr
in
rain mn
in
humidity
%
barometer
mb
20180420163503 64 325 6.0 14.0 0.00 0.00 0.00 53 1023.2
20180420163005 64 321 8.0 14.0 0.00 0.00 0.00 53 1023.2
20180420162502 64 315 8.0 16.0 0.00 0.00 0.00 51 1023.3
20180420161505 65 326 6.0 16.0 0.00 0.00 0.00 54 1023.3
20180420161002 65 317 6.0 14.0 0.00 0.00 0.00 52 1023.2
20180420160006 65 303 8.0 14.0 0.00 0.00 0.00 52 1023.3
20180420155502 65 296 8.0 13.0 0.00 0.00 0.00 54 1023.3
20180420155003 65 297 6.0 12.0 0.00 0.00 0.00 50 1023.3
20180420154505 65 291 6.0 12.0 0.00 0.00 0.00 54 1023.3
20180420154002 65 298 6.0 13.0 0.00 0.00 0.00 52 1023.3
20180420153502 65 308 6.0 13.0 0.00 0.00 0.00 52 1023.4
20180420153005 65 300 8.0 14.0 0.00 0.00 0.00 53 1023.4
20180420152502 65 289 8.0 14.0 0.00 0.00 0.00 50 1023.6
20180420152002 66 288 6.0 13.0 0.00 0.00 0.00 52 1023.4
20180420151505 66 304 6.0 12.0 0.00 0.00 0.00 53 1023.4
20180420151003 66 309 7.0 12.0 0.00 0.00 0.00 55 1023.4
20180420150502 66 312 7.0 12.0 0.00 0.00 0.00 55 1023.3
20180420150007 66 312 7.0 12.0 0.00 0.00 0.00 54 1023.2
20180420145502 66 303 7.0 15.0 0.00 0.00 0.00 55 1023.3
20180420145002 66 303 7.0 15.0 0.00 0.00 0.00 56 1023.3
20180420144505 65 308 7.0 13.0 0.00 0.00 0.00 54 1023.3
20180420144002 65 304 7.0 12.0 0.00 0.00 0.00 54 1023.4
20180420143502 65 304 7.0 12.0 0.00 0.00 0.00 54 1023.3
20180420143005 65 305 7.0 13.0 0.00 0.00 0.00 54 1023.3
20180420142502 65 304 7.0 13.0 0.00 0.00 0.00 55 1023.3
20180420142002 65 306 7.0 14.0 0.00 0.00 0.00 56 1023.4
20180420141504 65 306 7.0 16.0 0.00 0.00 0.00 58 1023.4
20180420141002 66 312 6.0 16.0 0.00 0.00 0.00 58 1023.3
20180420140502 65 306 7.0 12.0 0.00 0.00 0.00 58 1023.4
20180420140005 66 308 7.0 15.0 0.00 0.00 0.00 57 1023.4
20180420135502 65 316 8.0 15.0 0.00 0.00 0.00 59 1023.4
20180420135002 65 314 8.0 13.0 0.00 0.00 0.00 59 1023.4
20180420134505 65 321 7.0 14.0 0.00 0.00 0.00 59 1023.5
20180420134002 66 329 6.0 14.0 0.00 0.00 0.00 59 1023.5
20180420133502 65 320 5.0 11.0 0.00 0.00 0.00 59 1023.5
20180420133005 65 300 5.0 11.0 0.00 0.00 0.00 60 1023.5
20180420132502 65 292 6.0 13.0 0.00 0.00 0.00 59 1023.5
20180420132002 65 296 6.0 13.0 0.00 0.00 0.00 57 1023.6
20180420131505 65 306 5.0 10.0 0.00 0.00 0.00 60 1023.5
20180420131002 64 310 7.0 13.0 0.00 0.00 0.00 59 1023.6
20180420130502 64 312 8.0 15.0 0.00 0.00 0.00 58 1023.6
20180420130005 64 315 8.0 15.0 0.00 0.00 0.00 57 1023.7
20180420125502 64 318 8.0 13.0 0.00 0.00 0.00 62 1023.5
20180420125002 63 317 8.0 14.0 0.00 0.00 0.00 61 1023.6
20180420124504 63 303 8.0 14.0 0.00 0.00 0.00 63 1023.6
20180420124002 63 286 7.0 12.0 0.00 0.00 0.00 63 1023.6
20180420123502 63 287 5.0 12.0 0.00 0.00 0.00 65 1023.6
20180420123004 63 299 6.0 12.0 0.00 0.00 0.00 67 1023.6
20180420122502 63 306 7.0 13.0 0.00 0.00 0.00 68 1023.7
20180420122002 63 310 6.0 13.0 0.00 0.00 0.00 68 1023.8
20180420121504 63 302 5.0 12.0 0.00 0.00 0.00 70 1023.7
20180420121002 62 306 6.0 12.0 0.00 0.00 0.00 69 1023.8
20180420120502 61 314 6.0 11.0 0.00 0.00 0.00 71 1023.9
20180420120004 62 314 6.0 10.0 0.00 0.00 0.00 70 1023.9
20180420115501 62 303 5.0 11.0 0.00 0.00 0.00 70 1024.0
20180420115002 62 311 4.0 11.0 0.00 0.00 0.00 71 1024.0
20180420114505 61 317 5.0 11.0 0.00 0.00 0.00 73 1024.0
20180420114001 60 307 5.0 11.0 0.00 0.00 0.00 73 1024.0
20180420113502 61 295 4.0 10.0 0.00 0.00 0.00 75 1024.0
20180420113004 60 289 6.0 14.0 0.00 0.00 0.00 74 1024.0
20180420112502 59 286 6.0 14.0 0.00 0.00 0.00 75 1024.0
20180420112002 59 289 4.0 11.0 0.00 0.00 0.00 76 1023.9
20180420111504 59 296 4.0 9.0 0.00 0.00 0.00 76 1024.0
20180420111002 59 307 5.0 10.0 0.00 0.00 0.00 77 1024.0
20180420110502 59 319 5.0 10.0 0.00 0.00 0.00 77 1024.1
20180420110004 59 312 4.0 9.0 0.00 0.00 0.00 78 1024.0
20180420105502 58 293 5.0 9.0 0.00 0.00 0.00 79 1024.0
20180420105002 58 278 4.0 10.0 0.00 0.00 0.00 78 1024.0
20180420104504 58 275 4.0 10.0 0.00 0.00 0.00 80 1023.9
20180420104002 57 288 5.0 10.0 0.00 0.00 0.00 81 1024.0
20180420103502 57 293 4.0 9.0 0.00 0.00 0.00 82 1024.1
20180420103004 56 295 3.0 8.0 0.00 0.00 0.00 82 1024.0
20180420102502 56 289 4.0 8.0 0.00 0.00 0.00 83 1024.1
20180420102002 56 296 5.0 10.0 0.00 0.00 0.00 83 1024.0
20180420101504 56 294 5.0 10.0 0.00 0.00 0.00 83 1024.0
20180420101001 56 278 4.0 8.0 0.00 0.00 0.00 84 1023.9
20180420100502 56 282 4.0 8.0 0.00 0.00 0.00 84 1024.0
20180420100004 56 289 4.0 8.0 0.00 0.00 0.00 83 1023.9
20180420095502 56 304 5.0 9.0 0.00 0.00 0.00 84 1024.0
20180420095001 56 308 5.0 9.0 0.00 0.00 0.00 83 1023.9
20180420094504 56 302 4.0 9.0 0.00 0.00 0.00 84 1024.0
20180420094002 56 294 4.0 9.0 0.00 0.00 0.00 84 1023.9
20180420093501 56 291 5.0 9.0 0.00 0.00 0.00 83 1023.9
20180420093004 56 283 4.0 9.0 0.00 0.00 0.00 84 1023.9
20180420092501 56 286 4.0 9.0 0.00 0.00 0.00 84 1023.8
20180420092002 55 305 3.0 6.0 0.00 0.00 0.00 84 1023.9
20180420091504 55 308 3.0 8.0 0.00 0.00 0.00 85 1023.9
20180420091001 55 306 4.0 8.0 0.00 0.00 0.00 85 1023.8
20180420090502 55 305 4.0 7.0 0.00 0.00 0.00 85 1023.8
20180420090004 55 312 3.0 7.0 0.00 0.00 0.00 85 1023.8
20180420085502 54 313 3.0 7.0 0.00 0.00 0.00 85 1023.7
20180420085001 54 304 3.0 8.0 0.00 0.00 0.00 85 1023.7
20180420084504 54 301 3.0 8.0 0.00 0.00 0.00 86 1023.7
20180420084002 54 300 3.0 7.0 0.00 0.00 0.00 86 1023.7
20180420083501 54 295 3.0 7.0 0.00 0.00 0.00 86 1023.7
20180420083004 54 307 3.0 5.0 0.00 0.00 0.00 86 1023.6
20180420082502 54 320 3.0 5.0 0.00 0.00 0.00 87 1023.7
20180420082001 53 306 3.0 5.0 0.00 0.00 0.00 87 1023.6
20180420081504 53 283 2.0 5.0 0.00 0.00 0.00 87 1023.6
20180420081002 53 282 3.0 6.0 0.00 0.00 0.00 87 1023.5
20180420080501 53 296 3.0 7.0 0.00 0.00 0.00 87 1023.6
20180420080004 53 320 4.0 8.0 0.00 0.00 0.00 87 1023.6
20180420075502 53 328 5.0 11.0 0.00 0.00 0.00 87 1023.6
20180420075001 53 324 5.0 11.0 0.00 0.00 0.00 87 1023.6
20180420074504 53 324 5.0 11.0 0.00 0.00 0.00 87 1023.7
20180420074001 53 327 5.0 11.0 0.00 0.00 0.00 87 1023.6
20180420073501 53 315 5.0 10.0 0.00 0.00 0.00 88 1023.5
20180420073004 53 314 5.0 11.0 0.00 0.00 0.00 88 1023.5
20180420072502 53 323 5.0 11.0 0.00 0.00 0.00 89 1023.5
20180420072001 52 316 5.0 10.0 0.00 0.00 0.00 89 1023.4
20180420071504 52 314 5.0 9.0 0.00 0.00 0.00 90 1023.5
20180420071002 52 310 4.0 9.0 0.00 0.00 0.00 90 1023.4
20180420070501 52 300 4.0 9.0 0.00 0.00 0.00 91 1023.4
20180420070004 52 301 4.0 9.0 0.00 0.00 0.00 91 1023.4
20180420065501 52 296 4.0 8.0 0.00 0.00 0.00 91 1023.4
20180420065002 52 293 4.0 8.0 0.00 0.00 0.00 91 1023.3
20180420064504 52 291 4.0 7.0 0.00 0.00 0.00 92 1023.2
20180420064001 52 285 3.0 7.0 0.00 0.00 0.00 92 1023.2
20180420063501 52 289 3.0 8.0 0.00 0.00 0.00 92 1023.2
20180420063004 52 300 3.0 9.0 0.00 0.00 0.00 92 1023.0
20180420062501 52 301 4.0 9.0 0.00 0.00 0.00 93 1023.2
20180420062001 52 296 5.0 9.0 0.00 0.00 0.00 93 1023.2
20180420061504 52 293 4.0 9.0 0.00 0.00 0.00 93 1023.2
20180420061001 52 300 3.0 6.0 0.00 0.00 0.00 93 1023.1
20180420060501 52 306 4.0 6.0 0.00 0.00 0.00 93 1023.1
20180420060004 52 312 3.0 6.0 0.00 0.00 0.00 93 1023.1
20180420055501 52 318 3.0 7.0 0.00 0.00 0.00 93 1023.0
20180420055001 51 310 4.0 7.0 0.00 0.00 0.00 93 1023.0
20180420054504 51 307 4.0 8.0 0.00 0.00 0.00 94 1022.9
20180420054001 51 311 2.0 8.0 0.00 0.00 0.00 94 1022.9
20180420053501 51 314 1.0 4.0 0.00 0.00 0.00 94 1022.8
20180420053004 51 309 2.0 4.0 0.00 0.00 0.00 93 1022.8
20180420052501 51 309 2.0 5.0 0.00 0.00 0.00 94 1022.8
20180420052001 51 314 3.0 5.0 0.00 0.00 0.00 94 1022.8
20180420051504 51 327 3.0 8.0 0.00 0.00 0.00 94 1022.7
20180420051001 51 332 4.0 8.0 0.00 0.00 0.00 94 1022.7
20180420050501 51 327 3.0 9.0 0.00 0.00 0.00 94 1022.7
20180420050004 51 329 3.0 9.0 0.00 0.00 0.00 94 1022.7
20180420045501 51 337 2.0 8.0 0.00 0.00 0.00 94 1022.7
20180420045001 51 326 2.0 5.0 0.00 0.00 0.00 94 1022.6
20180420044504 51 314 1.0 5.0 0.00 0.00 0.00 94 1022.6
20180420044001 51 0 0.0 4.0 0.00 0.00 0.00 94 1022.6
20180420043501 51 310 1.0 5.0 0.00 0.00 0.00 94 1022.5
20180420043004 51 305 2.0 5.0 0.00 0.00 0.00 94 1022.5
20180420042501 51 300 1.0 4.0 0.00 0.00 0.00 94 1022.5
20180420042001 51 0 0.0 0.0 0.00 0.00 0.00 94 1022.5
20180420041504 50 0 0.0 0.0 0.00 0.00 0.00 94 1022.6
20180420041001 50 0 0.0 0.0 0.00 0.00 0.00 94 1022.5
20180420040500 50 0 0.0 0.0 0.00 0.00 0.00 93 1022.6
20180420040004 50 0 0.0 0.0 0.00 0.00 0.00 93 1022.6
20180420035501 50 0 0.0 0.0 0.00 0.00 0.00 93 1022.6
20180420035000 50 0 0.0 0.0 0.00 0.00 0.00 93 1022.6
20180420034504 50 0 0.0 0.0 0.00 0.00 0.00 93 1022.7
20180420034001 50 0 0.0 0.0 0.00 0.00 0.00 93 1022.7
20180420033500 50 0 0.0 0.0 0.00 0.00 0.00 93 1022.7
20180420033004 49 0 0.0 0.0 0.00 0.00 0.00 93 1022.8
20180420032501 49 0 0.0 0.0 0.00 0.00 0.00 93 1022.8
20180420032001 49 0 0.0 0.0 0.00 0.00 0.00 93 1022.8
20180420031504 49 0 0.0 0.0 0.00 0.00 0.00 93 1022.8
20180420031001 49 0 0.0 0.0 0.00 0.00 0.00 93 1022.9
20180420030501 49 0 0.0 0.0 0.00 0.00 0.00 93 1022.8
20180420030004 49 0 0.0 0.0 0.00 0.00 0.00 93 1022.9
20180420025501 49 0 0.0 0.0 0.00 0.00 0.00 93 1022.9
20180420025001 49 0 0.0 0.0 0.00 0.00 0.00 93 1022.9
20180420024503 49 0 0.0 0.0 0.00 0.00 0.00 93 1022.9
20180420024001 49 0 0.0 0.0 0.00 0.00 0.00 93 1022.9
20180420023501 49 0 0.0 0.0 0.00 0.00 0.00 93 1022.9
20180420023003 49 0 0.0 0.0 0.00 0.00 0.00 93 1022.9
20180420022501 49 0 0.0 0.0 0.00 0.00 0.00 93 1022.9
20180420020501 50 251 1.0 4.0 0.00 0.00 0.00 92 1022.8
20180420020003 50 0 0.0 3.0 0.00 0.00 0.00 92 1022.8
20180420015501 50 0 0.0 0.0 0.00 0.00 0.00 92 1022.8
20180420015000 50 0 0.0 2.0 0.00 0.00 0.00 92 1022.8
20180420014001 50 0 0.0 3.0 0.00 0.00 0.00 92 1022.7
20180420013004 50 0 0.0 0.0 0.00 0.00 0.00 92 1022.8
20180420012500 50 0 0.0 0.0 0.00 0.00 0.00 92 1022.8
20180420012001 51 0 0.0 2.0 0.00 0.00 0.00 92 1022.7
20180420011504 51 0 0.0 2.0 0.00 0.00 0.00 92 1022.7
20180420010500 51 0 0.0 0.0 0.00 0.00 0.00 92 1022.7
20180420010004 51 0 0.0 0.0 0.00 0.00 0.00 92 1022.8
20180420005500 51 0 0.0 0.0 0.00 0.00 0.00 92 1022.8
20180420005001 51 0 0.0 0.0 0.00 0.00 0.00 92 1022.8
20180420004503 51 0 0.0 0.0 0.00 0.00 0.00 91 1022.8
20180420004001 51 0 0.0 0.0 0.00 0.00 0.00 91 1022.9
20180420003500 51 0 0.0 0.0 0.00 0.00 0.00 91 1022.8
20180420002501 51 0 0.0 0.0 0.00 0.00 0.00 91 1022.9
20180420002001 51 0 0.0 0.0 0.00 0.00 0.00 91 1022.9
20180420001503 52 0 0.0 0.0 0.00 0.00 0.00 91 1022.9
20180420001001 52 0 0.0 0.0 0.00 0.00 0.00 91 1022.9
20180420000500 52 0 0.0 0.0 0.00 0.00 0.00 91 1022.8
20180420000003 52 0 0.0 0.0 0.00 0.00 0.00 91 1022.8
20180419235501 52 0 0.0 0.0 0.00 0.00 0.00 91 1022.8
20180419235000 52 0 0.0 0.0 0.00 0.00 0.00 90 1022.8
20180419234503 52 0 0.0 0.0 0.00 0.00 0.00 91 1022.8
20180419234000 53 0 0.0 0.0 0.00 0.00 0.00 91 1022.8
20180419233500 53 0 0.0 0.0 0.00 0.00 0.00 90 1022.8
20180419233003 53 0 0.0 0.0 0.00 0.00 0.00 90 1022.8
20180419232500 53 0 0.0 2.0 0.00 0.00 0.00 90 1022.8
20180419232000 53 0 0.0 2.0 0.00 0.00 0.00 90 1022.7
20180419231503 53 306 1.0 3.0 0.00 0.00 0.00 90 1022.7
20180419231001 53 303 2.0 3.0 0.00 0.00 0.00 90 1022.8
20180419230500 53 300 3.0 5.0 0.00 0.00 0.00 90 1022.7
20180419230007 53 297 3.0 5.0 0.00 0.00 0.00 90 1022.7
20180419225501 53 298 3.0 5.0 0.00 0.00 0.00 90 1022.7
20180419225001 53 297 3.0 5.0 0.00 0.00 0.00 90 1022.7
20180419224503 53 299 3.0 4.0 0.00 0.00 0.00 90 1022.8
20180419224001 54 311 3.0 7.0 0.00 0.00 0.00 90 1022.7
20180419223500 54 315 3.0 7.0 0.00 0.00 0.00 90 1022.7
20180419223003 54 316 2.0 5.0 0.00 0.00 0.00 90 1022.8
20180419222500 54 311 3.0 6.0 0.00 0.00 0.00 89 1022.8
20180419222000 54 301 2.0 6.0 0.00 0.00 0.00 89 1022.8
20180419221503 54 290 2.0 4.0 0.00 0.00 0.00 89 1022.8
20180419221000 54 290 3.0 5.0 0.00 0.00 0.00 89 1022.7
20180419220500 54 296 2.0 5.0 0.00 0.00 0.00 89 1022.8
20180419220003 54 299 1.0 4.0 0.00 0.00 0.00 89 1022.8
20180419215500 54 282 1.0 3.0 0.00 0.00 0.00 88 1022.8
20180419215001 54 0 0.0 3.0 0.00 0.00 0.00 88 1023.0
20180419214503 54 275 1.0 3.0 0.00 0.00 0.00 88 1022.9
20180419214000 55 285 1.0 3.0 0.00 0.00 0.00 88 1023.0
20180419213459 55 297 2.0 3.0 0.00 0.00 0.00 88 1022.9
20180419213003 55 300 1.0 3.0 0.00 0.00 0.00 88 1023.0
20180419212500 55 301 1.0 3.0 0.00 0.00 0.00 88 1022.9
20180419212000 55 302 1.0 2.0 0.00 0.00 0.00 87 1023.0
20180419211503 55 0 0.0 2.0 0.00 0.00 0.00 87 1023.0
20180419211000 56 286 1.0 4.0 0.00 0.00 0.00 87 1023.1
20180419210459 56 290 1.0 4.0 0.00 0.00 0.00 87 1023.2
20180419210003 56 303 2.0 5.0 0.00 0.00 0.00 87 1023.1
20180419205500 56 302 3.0 5.0 0.00 0.00 0.00 86 1023.1
20180419205001 56 301 3.0 6.0 0.00 0.00 0.00 86 1023.2
20180419204503 56 301 4.0 7.0 0.00 0.00 0.00 86 1023.2
20180419204002 56 297 3.0 7.0 0.00 0.00 0.00 86 1023.1
20180419203500 57 291 3.0 7.0 0.00 0.00 0.00 85 1023.1
20180419203003 57 293 4.0 9.0 0.00 0.00 0.00 85 1023.0
20180419202459 57 296 5.0 9.0 0.00 0.00 0.00 85 1023.1
20180419202000 57 292 4.0 9.0 0.00 0.00 0.00 84 1023.1
20180419201503 58 292 4.0 9.0 0.00 0.00 0.00 84 1023.1
20180419201000 58 303 4.0 9.0 0.00 0.00 0.00 83 1023.1
20180419200500 58 306 5.0 10.0 0.00 0.00 0.00 83 1023.1
20180419200002 58 305 6.0 11.0 0.00 0.00 0.00 83 1023.0
20180419195500 59 300 6.0 11.0 0.00 0.00 0.00 82 1023.0
20180419194959 59 295 6.0 10.0 0.00 0.00 0.00 82 1023.0
20180419194503 59 299 5.0 9.0 0.00 0.00 0.00 81 1022.9
20180419194000 60 298 5.0 9.0 0.00 0.00 0.00 81 1022.8
20180419193459 60 298 5.0 10.0 0.00 0.00 0.00 81 1022.8
20180419193003 60 301 5.0 10.0 0.00 0.00 0.00 80 1022.7
20180419192500 60 300 5.0 9.0 0.00 0.00 0.00 80 1022.6
20180419192000 61 301 6.0 15.0 0.00 0.00 0.00 79 1022.6
20180419191503 61 300 7.0 15.0 0.00 0.00 0.00 78 1022.5
20180419191000 62 304 7.0 12.0 0.00 0.00 0.00 78 1022.4
20180419190500 62 310 7.0 13.0 0.00 0.00 0.00 77 1022.4
20180419190003 62 307 7.0 13.0 0.00 0.00 0.00 76 1022.3
20180419185459 63 303 7.0 12.0 0.00 0.00 0.00 75 1022.3
20180419185000 63 296 7.0 12.0 0.00 0.00 0.00 74 1022.2
20180419184503 64 298 6.0 12.0 0.00 0.00 0.00 74 1022.1
20180419183959 64 305 7.0 12.0 0.00 0.00 0.00 73 1022.1
20180419183500 65 304 8.0 12.0 0.00 0.00 0.00 72 1022.0
20180419183002 65 304 7.0 13.0 0.00 0.00 0.00 72 1021.9
20180419182459 66 300 8.0 13.0 0.00 0.00 0.00 71 1021.9
20180419182000 66 295 8.0 12.0 0.00 0.00 0.00 69 1021.9
20180419181503 67 299 7.0 13.0 0.00 0.00 0.00 68 1021.9
20180419181000 68 299 7.0 13.0 0.00 0.00 0.00 67 1021.9
20180419180459 68 295 7.0 13.0 0.00 0.00 0.00 66 1021.8
20180419180003 69 296 7.0 12.0 0.00 0.00 0.00 65 1021.7
20180419175459 69 298 8.0 12.0 0.00 0.00 0.00 65 1021.7
20180419175000 70 296 7.0 12.0 0.00 0.00 0.00 63 1021.7
20180419174503 71 295 6.0 12.0 0.00 0.00 0.00 63 1021.6
20180419173959 71 293 6.0 10.0 0.00 0.00 0.00 62 1021.6
20180419173500 71 293 6.0 10.0 0.00 0.00 0.00 61 1021.6
20180419173002 72 299 6.0 10.0 0.00 0.00 0.00 60 1021.5
20180419172500 72 305 6.0 10.0 0.00 0.00 0.00 60 1021.5
20180419171959 72 315 6.0 10.0 0.00 0.00 0.00 60 1021.6
20180419171502 72 314 7.0 11.0 0.00 0.00 0.00 59 1021.5
20180419171000 73 313 7.0 11.0 0.00 0.00 0.00 58 1021.5
20180419170459 73 314 7.0 11.0 0.00 0.00 0.00 58 1021.5
20180419170002 73 306 6.0 11.0 0.00 0.00 0.00 58 1021.5
20180419165500 74 301 6.0 11.0 0.00 0.00 0.00 56 1021.5
20180419164959 74 304 5.0 11.0 0.00 0.00 0.00 57 1021.5
20180419164502 75 302 6.0 12.0 0.00 0.00 0.00 56 1021.4
20180419164000 75 289 7.0 12.0 0.00 0.00 0.00 54 1021.5